Portage, MI

2:51 PM EDT on September 25, 2016 (GMT -0400)
Kalamazoo-Battle Creek International

Weather History for KAZO - January, 2007

Change the Weather History Date:

Tuesday, January 23, 2007

  Actual Average Record
Temperature  
Mean Temperature 27 °F 24 °F  
Max Temperature 28 °F 31 °F 58 °F (1967)
Min Temperature 26 °F 18 °F -9 °F (2011)
Degree Days  
Heating Degree Days 38 41  
Month to date heating degree days 935  
Since 1 July heating degree days 3386  
Cooling Degree Days 0 0  
Month to date cooling degree days 0  
Year to date cooling degree days 0  
Moisture  
Dew Point 22 °F    
Average Humidity 81    
Maximum Humidity 86    
Minimum Humidity 74    
Precipitation  
Precipitation 0.00 in 0.06 in 0.71 in (1965)
Month to date precipitation 1.32  
Year to date precipitation 1.32  
Snow  
Snow 0.00 in - - ()
Snow Depth 3.00 in    
Sea Level Pressure  
Sea Level Pressure 29.91 in    
Wind  
Wind Speed 11 mph (WSW)    
Max Wind Speed 16 mph    
Max Gust Speed 26 mph    
Visibility 5 miles    
Events Snow    
T = Trace of Precipitation, MM = Missing Value Source: NWS Daily Summary

Daily Weather History Graph

Daily Weather History Graph

Search for Another Location

Airport or City:

Trip Planner

Search our weather history database for the weather conditions in past years. The results will help you decide how hot, cold, wet, or windy it might be!

Date:

Astronomy

Jan. 23, 2007 Rise Set
Actual Time 8:03 AM EST 5:44 PM EST
Civil Twilight 7:33 AM EST 6:15 PM EST
Nautical Twilight 6:59 AM EST 6:49 PM EST
Astronomical Twilight 6:26 AM EST 7:22 PM EST
Moon 10:32 AM EST (1/23) 11:26 PM EST (1/23)
Length of Visible Light 10h 41m
Length of Day
9h 40m
Waxing Crescent, 25% of the Moon is Illuminated
Jan 23
Waxing Crescent
Jan 25
First Quarter
Feb 2
Full
Feb 10
Last Quarter
Feb 17
New

Hourly Weather History & Observations

Time (EST) Temp. Windchill Dew Point Humidity Pressure Visibility Wind Dir Wind Speed Gust Speed Precip Events Conditions
12:53 AM 28.0 °F 19.3 °F 21.9 °F 78% 29.93 in 10.0 mi SW 9.2 mph - 0.00 in   Overcast
1:53 AM 27.0 °F 15.6 °F 21.9 °F 81% 29.91 in 8.0 mi SW 13.8 mph - N/A   Overcast
2:05 AM 26.6 °F 17.5 °F 21.2 °F 80% 29.88 in 8.0 mi SW 9.2 mph - N/A   Overcast
2:53 AM 27.0 °F 14.7 °F 21.9 °F 81% 29.92 in 7.0 mi SW 16.1 mph - 0.00 in Snow Light Snow
3:53 AM 26.1 °F 15.6 °F 21.9 °F 84% 29.91 in 6.0 mi SW 11.5 mph - 0.00 in Snow Light Snow
4:53 AM 26.1 °F 15.0 °F 21.9 °F 84% 29.89 in 6.0 mi SW 12.7 mph - 0.00 in Snow Light Snow
5:18 AM 26.6 °F 15.2 °F 21.2 °F 80% 29.86 in 6.0 mi SW 13.8 mph - 0.00 in   Haze
5:53 AM 27.0 °F 15.2 °F 21.0 °F 78% 29.88 in 6.0 mi WSW 15.0 mph - 0.00 in   Haze
6:53 AM 26.6 °F 15.2 °F 21.2 °F 80% 29.84 in 6.0 mi SW 13.8 mph - N/A   Haze
7:53 AM 26.1 °F 14.0 °F 19.0 °F 75% 29.89 in 6.0 mi SW 15.0 mph 26.5 mph N/A   Haze
8:53 AM 26.1 °F 14.5 °F 19.9 °F 78% 29.90 in 5.0 mi SW 13.8 mph 24.2 mph N/A   Haze
9:53 AM 26.1 °F 13.6 °F 21.0 °F 81% 29.88 in 4.0 mi SW 16.1 mph 24.2 mph N/A   Haze
10:48 AM 26.6 °F 14.3 °F 21.2 °F 80% 29.86 in 2.5 mi WSW 16.1 mph - 0.00 in Snow Light Snow
10:53 AM 27.0 °F 16.7 °F 21.0 °F 78% 29.90 in 2.0 mi WSW 11.5 mph - 0.00 in Snow Light Snow
11:53 AM 27.0 °F 15.6 °F 21.9 °F 81% 29.91 in 2.0 mi WSW 13.8 mph - 0.00 in Snow Light Snow
12:18 PM 26.6 °F 16.8 °F 21.2 °F 80% 29.87 in 2.5 mi WSW 10.4 mph - 0.00 in Snow Light Snow
12:27 PM 26.6 °F 16.2 °F 21.2 °F 80% 29.87 in 3.0 mi WSW 11.5 mph - 0.00 in Snow Light Snow
12:53 PM 28.0 °F 17.0 °F 23.0 °F 81% 29.90 in 2.5 mi West 13.8 mph - 0.00 in Snow Light Snow
1:03 PM 28.4 °F 17.0 °F 23.0 °F 80% 29.86 in 3.0 mi WSW 15.0 mph 19.6 mph 0.00 in Snow Light Snow
1:20 PM 28.4 °F 18.5 °F 23.0 °F 80% 29.86 in 2.5 mi WSW 11.5 mph - 0.00 in Snow Light Snow
1:30 PM 28.4 °F 19.1 °F 23.0 °F 80% 29.85 in 3.0 mi West 10.4 mph - 0.00 in Snow Light Snow
1:53 PM 28.0 °F 19.3 °F 23.0 °F 81% 29.89 in 4.0 mi WSW 9.2 mph 17.3 mph 0.00 in Snow Light Snow
2:53 PM 28.0 °F 18.6 °F 23.0 °F 81% 29.89 in 4.0 mi West 10.4 mph 19.6 mph 0.00 in Snow Light Snow
3:53 PM 28.0 °F 18.6 °F 23.0 °F 81% 29.90 in 5.0 mi West 10.4 mph - 0.00 in Snow Light Snow
4:35 PM 28.4 °F 18.5 °F 21.2 °F 74% 29.88 in 5.0 mi West 11.5 mph - 0.00 in Snow Light Snow
4:53 PM 28.0 °F 19.3 °F 21.9 °F 78% 29.93 in 4.0 mi WSW 9.2 mph - 0.00 in Snow Light Snow
5:53 PM 27.0 °F 18.7 °F 21.9 °F 81% 29.96 in 4.0 mi WSW 8.1 mph - 0.00 in Snow Light Snow
6:53 PM 27.0 °F 18.7 °F 21.9 °F 81% 29.98 in 5.0 mi West 8.1 mph - 0.00 in Snow Light Snow
7:32 PM 26.6 °F 19.1 °F 23.0 °F 86% 29.96 in 5.0 mi West 6.9 mph - 0.00 in Snow Light Snow
7:53 PM 27.0 °F 21.6 °F 23.0 °F 85% 30.00 in 5.0 mi West 4.6 mph - 0.00 in Snow Light Snow
8:35 PM 26.6 °F 21.2 °F 23.0 °F 86% 29.96 in 6.0 mi WNW 4.6 mph - 0.00 in   Overcast
8:53 PM 27.0 °F 20.5 °F 23.0 °F 85% 30.00 in 6.0 mi NW 5.8 mph - 0.00 in Snow Light Snow
9:53 PM 27.0 °F 21.6 °F 23.0 °F 85% 30.01 in 6.0 mi WNW 4.6 mph - 0.00 in   Overcast
10:35 PM 26.6 °F 20.0 °F 21.2 °F 80% 29.97 in 6.0 mi NW 5.8 mph - N/A   Haze
10:53 PM 27.0 °F 21.6 °F 21.9 °F 81% 30.01 in 7.0 mi NW 4.6 mph - N/A   Overcast
11:53 PM 27.0 °F 23.0 °F 21.9 °F 81% 30.02 in 5.0 mi WSW 3.5 mph - 0.00 in Snow Light Snow